User: anonymous   Login
Location: *
(33.8649°S, 62.1526°E)
Time: 17:24:36
(UTC+00:00)
Language:

Cosmos 2082 Rocket - Orbit

View from above orbital plane
View from above orbital plane
View from above satellite
View from above satellite

Ground track
Ground track

The orbit data is extracted from the following two-line orbital elements,

1 20625U 90046B   21112.64689967  .00000206  00000-0  13142-3 0  9998
2 20625  70.9989  79.2047 0012787 139.1191 221.0893 14.14669248596345
Epoch (UTC): 22 April 2021 15:31:32
Eccentricity: 0.0012787
inclination: 70.9989°
perigee height: 834 km
apogee height: 852 km
right ascension of ascending node: 79.2047°
argument of perigee: 139.1191°
revolutions per day: 14.14669248
mean anomaly at epoch: 221.0893°
orbit number at epoch: 59634

The dashed part of the orbit path shows where the satellite is in the earth's shadow,  

DLR